• In Deutschland
  • Länderverzeichnis
  • Für 7 Tage
  • Wassertemperatur
  • Satellitenkarten
  • Wetterkarte
  • Widgets
  • user-avatar
    Anmelden

    Stündliche Wetter Gredyakino

    Heute, 24 September, Montag

    Zeit Temperatur Niederschläge Wind Luftdruck Luftfeuchtigkeit
    00:00 +7°C° 0 mm 3 m/S 738 mmHg 92%
    01:00 +7°C° 0 mm 2 m/S 738 mmHg 93%
    02:00 +6°C° 0 mm 2 m/S 737 mmHg 97%
    03:00 +6°C° 0 mm 2 m/S 737 mmHg 97%
    04:00 +6°C° 0 mm 2 m/S 737 mmHg 97%
    05:00 +6°C° 0 mm 2 m/S 737 mmHg 96%
    06:00 +7°C° 0.3 mm 2 m/S 737 mmHg 95%
    07:00 +7°C° 0.3 mm 3 m/S 736 mmHg 93%
    08:00 +8°C° 0 mm 3 m/S 736 mmHg 91%
    09:00 +8°C° 1.3 mm 3 m/S 735 mmHg 92%
    10:00 +7°C° 1.3 mm 4 m/S 735 mmHg 92%
    11:00 +7°C° 1.3 mm 4 m/S 734 mmHg 92%
    12:00 +7°C° 1.8 mm 4 m/S 733 mmHg 92%
    13:00 +7°C° 1.8 mm 5 m/S 732 mmHg 92%
    14:00 +7°C° 1.8 mm 5 m/S 731 mmHg 92%
    15:00 +7°C° 2.9 mm 5 m/S 730 mmHg 93%
    16:00 +6°C° 2.9 mm 5 m/S 729 mmHg 94%
    17:00 +6°C° 2.9 mm 5 m/S 728 mmHg 95%
    18:00 +6°C° 3 mm 5 m/S 727 mmHg 95%
    19:00 +6°C° 3 mm 5 m/S 727 mmHg 95%
    20:00 +7°C° 3 mm 5 m/S 727 mmHg 95%
    21:00 +5°C° 1.5 mm 6 m/S 727 mmHg 94%
    22:00 +5°C° 1.5 mm 6 m/S 727 mmHg 93%
    23:00 +5°C° 1.5 mm 6 m/S 727 mmHg 93%

    Morgen, 25 September, Dienstag

    Zeit Temperatur Niederschläge Wind Luftdruck Luftfeuchtigkeit
    00:00 +5°C° 1 mm 7 m/S 728 mmHg 92%
    01:00 +5°C° 1 mm 7 m/S 728 mmHg 91%
    02:00 +5°C° 1 mm 7 m/S 729 mmHg 91%
    03:00 +5°C° 0.5 mm 7 m/S 730 mmHg 90%
    04:00 +5°C° 0.5 mm 7 m/S 731 mmHg 90%
    05:00 +4°C° 0.5 mm 7 m/S 731 mmHg 89%
    06:00 +4°C° 0.2 mm 7 m/S 732 mmHg 89%
    07:00 +4°C° 0.2 mm 7 m/S 733 mmHg 88%
    08:00 +4°C° 0.2 mm 7 m/S 734 mmHg 88%
    09:00 +4°C° 0.1 mm 7 m/S 735 mmHg 86%
    10:00 +5°C° 0.1 mm 6 m/S 736 mmHg 85%
    11:00 +5°C° 0.1 mm 6 m/S 737 mmHg 83%
    12:00 +5°C° 0 mm 6 m/S 737 mmHg 80%
    13:00 +7°C° 0 mm 6 m/S 738 mmHg 77%
    14:00 +7°C° 0 mm 6 m/S 739 mmHg 74%
    15:00 +7°C° 0 mm 5 m/S 740 mmHg 74%
    16:00 +6°C° 0 mm 5 m/S 740 mmHg 74%
    17:00 +6°C° 0 mm 4 m/S 741 mmHg 73%
    18:00 +6°C° 0 mm 5 m/S 742 mmHg 75%
    19:00 +5°C° 0 mm 5 m/S 743 mmHg 76%
    20:00 +5°C° 0 mm 5 m/S 743 mmHg 77%
    21:00 +4°C° 0 mm 4 m/S 744 mmHg 77%
    22:00 +4°C° 0 mm 4 m/S 745 mmHg 77%
    23:00 +3°C° 0 mm 4 m/S 745 mmHg 76%

    übermorgen, 26 September, Mittwoch

    Zeit Temperatur Niederschläge Wind Luftdruck Luftfeuchtigkeit
    00:00 +3°C° 0 mm 4 m/S 746 mmHg 76%
    01:00 +1°C° 0 mm 4 m/S 746 mmHg 76%
    02:00 +1°C° 0 mm 3 m/S 747 mmHg 76%
    03:00 +1°C° 0 mm 3 m/S 747 mmHg 78%
    04:00 0°C° 0 mm 3 m/S 748 mmHg 80%
    05:00 0°C° 0 mm 3 m/S 748 mmHg 82%
    06:00 +1°C° 0 mm 3 m/S 749 mmHg 80%
    07:00 +2°C° 0 mm 3 m/S 749 mmHg 78%
    08:00 +3°C° 0 mm 3 m/S 749 mmHg 76%
    09:00 +5°C° 0 mm 3 m/S 749 mmHg 71%
    10:00 +6°C° 0 mm 4 m/S 749 mmHg 67%
    11:00 +8°C° 0 mm 4 m/S 749 mmHg 63%
    12:00 +10°C° 0 mm 4 m/S 748 mmHg 60%
    13:00 +10°C° 0 mm 5 m/S 748 mmHg 57%
    14:00 +10°C° 0 mm 5 m/S 747 mmHg 54%
    15:00 +10°C° 0 mm 5 m/S 746 mmHg 58%
    16:00 +9°C° 0 mm 5 m/S 746 mmHg 61%
    17:00 +8°C° 0 mm 5 m/S 745 mmHg 65%
    18:00 +7°C° 0.3 mm 5 m/S 744 mmHg 71%
    19:00 +7°C° 0.3 mm 6 m/S 743 mmHg 78%
    20:00 +5°C° 0.3 mm 7 m/S 743 mmHg 84%
    21:00 +5°C° 1.3 mm 7 m/S 741 mmHg 86%
    22:00 +5°C° 1.3 mm 8 m/S 740 mmHg 88%
    23:00 +5°C° 1.3 mm 8 m/S 739 mmHg 90%

    27 September, Donnerstag

    Zeit Temperatur Niederschläge Wind Luftdruck Luftfeuchtigkeit
    00:00 +5°C° 1.1 mm 8 m/S 738 mmHg 90%
    01:00 +5°C° 1.1 mm 7 m/S 738 mmHg 91%
    02:00 +5°C° 1.1 mm 7 m/S 737 mmHg 91%
    03:00 +6°C° 0.7 mm 7 m/S 737 mmHg 92%
    04:00 +7°C° 0.7 mm 6 m/S 737 mmHg 92%
    05:00 +7°C° 0.7 mm 5 m/S 736 mmHg 93%
    06:00 +7°C° 0.2 mm 5 m/S 737 mmHg 92%
    07:00 +7°C° 0.2 mm 5 m/S 737 mmHg 92%
    08:00 +7°C° 0.2 mm 4 m/S 737 mmHg 91%
    09:00 +8°C° 0 mm 5 m/S 737 mmHg 86%
    10:00 +8°C° 0 mm 5 m/S 737 mmHg 81%
    11:00 +9°C° 0 mm 5 m/S 737 mmHg 76%
    12:00 +9°C° 0 mm 5 m/S 737 mmHg 74%
    13:00 +9°C° 0 mm 5 m/S 737 mmHg 72%
    14:00 +9°C° 0 mm 5 m/S 737 mmHg 70%
    15:00 +8°C° 0 mm 4 m/S 737 mmHg 73%
    16:00 +8°C° 0 mm 4 m/S 737 mmHg 76%
    17:00 +8°C° 0 mm 3 m/S 737 mmHg 79%
    18:00 +8°C° 0 mm 3 m/S 738 mmHg 82%
    19:00 +7°C° 0 mm 3 m/S 738 mmHg 84%
    20:00 +7°C° 0 mm 3 m/S 738 mmHg 87%
    21:00 +7°C° 0 mm 3 m/S 738 mmHg 88%
    22:00 +7°C° 0 mm 3 m/S 738 mmHg 88%
    23:00 +7°C° 0 mm 3 m/S 738 mmHg 89%

    28 September, Freitag

    Zeit Temperatur Niederschläge Wind Luftdruck Luftfeuchtigkeit
    00:00 +7°C° 0 mm 3 m/S 737 mmHg 89%
    01:00 +7°C° 0 mm 3 m/S 737 mmHg 89%
    02:00 +7°C° 0 mm 3 m/S 737 mmHg 89%
    03:00 +7°C° 0.4 mm 3 m/S 736 mmHg 91%
    04:00 +8°C° 0.4 mm 3 m/S 735 mmHg 93%
    05:00 +8°C° 0.4 mm 3 m/S 735 mmHg 95%
    06:00 +8°C° 2.5 mm 3 m/S 734 mmHg 95%
    07:00 +8°C° 2.5 mm 3 m/S 734 mmHg 96%
    08:00 +8°C° 2.5 mm 2 m/S 733 mmHg 97%
    09:00 +8°C° 0.7 mm 3 m/S 734 mmHg 94%
    10:00 +8°C° 0.7 mm 3 m/S 735 mmHg 91%
    11:00 +8°C° 0.7 mm 3 m/S 735 mmHg 88%
    12:00 +9°C° 0 mm 3 m/S 736 mmHg 81%
    13:00 +10°C° 0 mm 4 m/S 737 mmHg 74%
    14:00 +11°C° 0 mm 4 m/S 737 mmHg 67%
    15:00 +10°C° 0 mm 3 m/S 738 mmHg 71%
    16:00 +9°C° 0 mm 2 m/S 738 mmHg 74%
    17:00 +8°C° 0 mm 2 m/S 739 mmHg 78%
    18:00 +8°C° 0 mm 1 m/S 739 mmHg 81%
    19:00 +7°C° 0 mm 1 m/S 740 mmHg 84%
    20:00 +6°C° 0 mm 1 m/S 740 mmHg 88%
    21:00 +5°C° 0 mm 1 m/S 740 mmHg 89%
    22:00 +5°C° 0 mm 1 m/S 741 mmHg 89%
    23:00 +3°C° 0 mm 0 m/S 741 mmHg 90%

    29 September, Samstag

    Zeit Temperatur Niederschläge Wind Luftdruck Luftfeuchtigkeit
    00:00 +4°C° 0 mm 1 m/S 741 mmHg 89%
    01:00 +4°C° 0 mm 1 m/S 741 mmHg 88%
    02:00 +4°C° 0 mm 1 m/S 741 mmHg 88%
    03:00 +4°C° 0.6 mm 2 m/S 742 mmHg 88%
    04:00 +4°C° 0.6 mm 2 m/S 742 mmHg 88%
    05:00 +4°C° 0.6 mm 2 m/S 742 mmHg 88%
    06:00 +3°C° 0.8 mm 3 m/S 743 mmHg 88%
    07:00 +3°C° 0.8 mm 3 m/S 743 mmHg 88%
    08:00 +3°C° 0.8 mm 3 m/S 743 mmHg 88%
    09:00 +3°C° 0.1 mm 3 m/S 744 mmHg 85%
    10:00 +4°C° 0.1 mm 3 m/S 744 mmHg 82%
    11:00 +4°C° 0.1 mm 3 m/S 745 mmHg 79%
    12:00 +5°C° 0 mm 3 m/S 745 mmHg 75%
    13:00 +5°C° 0 mm 3 m/S 745 mmHg 71%
    14:00 +7°C° 0 mm 2 m/S 745 mmHg 68%
    15:00 +6°C° 0 mm 2 m/S 746 mmHg 72%
    16:00 +6°C° 0 mm 1 m/S 746 mmHg 76%
    17:00 +6°C° 0 mm 1 m/S 746 mmHg 80%
    18:00 +5°C° 0 mm 1 m/S 747 mmHg 84%
    19:00 +4°C° 0 mm 1 m/S 748 mmHg 87%
    20:00 +3°C° 0 mm 1 m/S 748 mmHg 90%
    21:00 +3°C° 0 mm 1 m/S 748 mmHg 90%
    22:00 +3°C° 0 mm 1 m/S 749 mmHg 90%
    23:00 +2°C° 0 mm 1 m/S 749 mmHg 90%
    Mehr zeigen